Date Time,Air Temp,Sky Temp,Clarity,Light Level,Rain Sensor,Readings
2010-02-02 00:00:02,15.4,-25.9,41.3,0.1,2.3,112
2010-02-02 00:05:02,15.4,-26.3,41.7,0.1,2.3,111
2010-02-02 00:10:02,15.4,-26.5,41.8,0.1,2.2,111
2010-02-02 00:15:02,15.4,-25.6,41.0,0.2,2.3,112
2010-02-02 00:20:02,15.3,-24.7,40.0,0.2,2.3,111
2010-02-02 00:25:02,15.2,-24.0,39.2,0.2,2.3,111
2010-02-02 00:30:02,15.2,-22.9,38.0,0.2,2.3,112
2010-02-02 00:35:02,15.2,-21.9,37.1,0.3,2.3,111
2010-02-02 00:40:02,15.3,-20.0,35.3,0.3,2.2,112
2010-02-02 00:45:02,15.4,-17.9,33.3,0.3,2.2,111
2010-02-02 00:50:02,15.5,-16.3,31.8,0.3,2.1,112
2010-02-02 00:55:02,15.6,-14.6,30.3,0.3,2.2,111
2010-02-02 01:00:02,15.8,-13.7,29.4,0.3,2.3,112
2010-02-02 01:05:02,15.8,-14.0,29.8,0.3,2.3,111
2010-02-02 01:10:02,15.9,-14.6,30.5,0.3,2.3,112
2010-02-02 01:15:02,15.8,-12.5,28.3,0.3,2.3,111
2010-02-02 01:20:02,15.8,-11.5,27.3,0.3,2.3,112
2010-02-02 01:25:02,15.8,-12.8,28.6,0.3,2.3,111
2010-02-02 01:30:02,15.8,-11.0,26.8,0.3,2.3,112
2010-02-02 01:35:02,15.9,-8.6,24.5,0.2,2.3,111
2010-02-02 01:40:02,15.9,-6.5,22.4,0.2,2.3,112
2010-02-02 01:45:02,16.0,-6.0,22.0,0.2,2.3,112
2010-02-02 01:50:02,14.3,-4.1,18.4,0.2,2.2,111
2010-02-02 01:55:02,12.4,-3.6,15.9,0.2,2.3,112
2010-02-02 02:00:02,11.9,-3.8,15.6,0.2,2.3,112
2010-02-02 02:05:02,11.8,-2.9,14.7,0.2,2.3,111
2010-02-02 02:10:02,11.7,-3.2,14.8,0.2,2.3,112
2010-02-02 02:15:02,11.7,-4.0,15.7,0.2,2.3,112
2010-02-02 02:20:02,11.7,-5.0,16.8,0.2,2.3,111
2010-02-02 02:25:02,11.8,-4.0,15.8,0.2,2.3,112
2010-02-02 02:30:02,11.9,-4.8,16.7,0.2,2.3,112
2010-02-02 02:35:02,12.0,-4.7,16.7,0.2,2.2,111
2010-02-02 02:40:02,12.1,-5.9,18.0,0.2,2.2,112
2010-02-02 02:45:02,12.2,-3.7,15.8,0.2,2.2,112
2010-02-02 02:50:02,12.2,-3.9,16.1,0.2,2.2,112
2010-02-02 02:55:02,12.2,-4.0,16.2,0.2,2.3,112
2010-02-02 03:00:02,12.2,-5.5,17.6,0.2,2.2,111
2010-02-02 03:05:02,12.2,-6.4,18.6,0.2,2.2,112
2010-02-02 03:10:02,13.0,-6.6,19.6,0.2,2.3,112
2010-02-02 03:15:02,14.6,-7.5,22.1,0.2,2.3,111
2010-02-02 03:20:02,16.3,-7.6,23.9,0.2,2.4,112
2010-02-02 03:25:02,16.8,-7.5,24.3,0.2,2.3,111
2010-02-02 03:30:02,16.9,-6.9,23.8,0.2,2.3,111
2010-02-02 03:35:02,17.0,-6.6,23.6,0.2,2.3,112
2010-02-02 03:40:02,17.1,-6.4,23.4,0.2,2.3,112
2010-02-02 03:45:02,17.2,-5.8,23.0,0.2,2.3,111
2010-02-02 03:50:02,17.2,-5.8,23.1,0.2,2.3,112
2010-02-02 03:55:02,17.2,-5.0,22.1,0.2,2.3,112
2010-02-02 04:00:02,16.9,-4.0,21.0,0.1,2.4,111
2010-02-02 04:05:02,17.1,-4.1,21.2,0.1,2.4,112
2010-02-02 04:10:02,17.0,-3.9,20.9,0.1,2.3,112
2010-02-02 04:15:02,16.9,-4.0,20.9,0.1,2.4,112
2010-02-02 04:20:02,16.0,-3.6,19.5,0.1,5.2,112
2010-02-02 04:25:02,14.0,-1.8,15.8,0.1,9.5,111
2010-02-02 04:30:02,13.1,-1.9,15.0,0.1,8.7,111
2010-02-02 04:35:02,12.9,0.8,12.1,0.1,9.1,112
2010-02-02 04:40:02,12.8,3.1,9.6,0.1,8.4,111
2010-02-02 04:45:02,12.7,4.6,8.0,0.1,6.4,112
2010-02-02 04:50:02,12.6,5.3,7.3,0.2,4.0,111
2010-02-02 04:55:02,12.6,4.4,8.2,0.1,4.3,112
2010-02-02 05:00:02,12.6,2.6,10.0,0.1,7.2,111
2010-02-02 05:05:02,13.2,-0.9,14.1,0.1,4.2,111
2010-02-02 05:10:02,12.6,0.1,12.4,0.1,4.2,112
2010-02-02 05:15:02,12.6,-0.9,13.5,0.1,2.6,112
2010-02-02 05:20:02,12.6,-1.1,13.7,0.1,3.2,111
2010-02-02 05:25:02,12.7,1.8,10.8,0.1,10.9,111
2010-02-02 05:30:02,12.8,3.3,9.6,0.1,2.6,112
2010-02-02 05:35:02,12.8,-0.7,13.5,0.1,2.3,111
2010-02-02 05:40:02,12.7,-2.5,15.3,0.1,2.5,112
2010-02-02 05:45:02,12.8,-1.4,14.1,0.1,2.4,111
2010-02-02 05:50:02,12.8,-0.8,13.6,0.0,3.5,112
2010-02-02 05:55:02,12.8,-3.2,16.0,0.1,2.5,111
2010-02-02 06:00:02,12.8,-4.3,17.1,0.1,2.4,112
2010-02-02 06:05:02,12.9,-4.5,17.3,0.1,2.3,112
2010-02-02 06:10:02,12.9,-3.9,16.8,0.1,2.2,111
2010-02-02 06:15:02,13.0,-4.8,17.8,0.1,2.0,112
2010-02-02 06:20:02,13.3,-6.1,19.4,0.1,2.1,112
2010-02-02 06:25:02,14.1,-3.5,17.5,0.1,2.3,111
2010-02-02 06:30:02,13.4,-2.5,15.8,0.1,2.3,112
2010-02-02 06:35:02,13.3,-1.9,15.2,0.1,2.2,112
2010-02-02 06:40:02,13.2,-2.8,16.0,0.1,2.2,111
2010-02-02 06:45:02,13.2,-2.2,15.4,0.2,2.1,112
2010-02-02 06:50:02,13.2,-1.1,14.3,0.3,2.1,111
2010-02-02 06:55:02,13.3,-1.2,14.5,0.6,2.2,112
2010-02-02 07:00:02,13.4,-1.3,14.6,1.2,2.3,112
2010-02-02 07:05:02,13.4,-1.3,14.7,2.2,2.3,112
2010-02-02 07:10:02,13.4,-0.6,14.0,3.9,2.3,111
2010-02-02 07:15:02,13.3,-0.1,13.4,5.8,3.0,112
2010-02-02 07:20:02,13.6,-0.4,14.0,7.9,5.0,111
2010-02-02 07:25:02,13.7,-0.6,14.3,11.6,4.3,112
2010-02-02 07:30:02,13.6,-0.5,14.1,16.7,9.9,112
2010-02-02 07:35:02,13.7,1.4,12.3,23.4,12.7,111
2010-02-02 07:40:02,13.7,1.0,12.7,26.1,2.9,111
2010-02-02 07:45:02,13.6,-0.1,13.7,28.0,2.4,112
2010-02-02 07:50:02,13.6,0.3,13.3,28.9,2.3,112
2010-02-02 07:55:02,13.6,0.4,13.3,29.2,2.3,111
2010-02-02 08:00:02,13.7,0.6,13.1,29.7,2.3,112
2010-02-02 08:05:02,13.8,0.7,13.1,29.9,2.4,111
2010-02-02 08:10:02,13.8,0.5,13.3,30.0,2.5,111
2010-02-02 08:15:02,13.8,0.2,13.6,31.1,2.4,112
2010-02-02 08:20:02,13.9,0.0,13.8,31.2,2.5,111
2010-02-02 08:25:02,13.9,0.1,13.8,31.4,2.5,112
2010-02-02 08:30:02,13.9,0.1,13.8,31.3,2.4,111
2010-02-02 08:35:02,14.0,0.3,13.7,31.5,2.4,112
2010-02-02 08:40:02,13.8,-0.0,13.8,31.7,2.5,112
2010-02-02 08:45:02,14.0,-1.4,15.4,32.0,2.5,111
2010-02-02 08:50:02,14.1,-1.6,15.6,32.0,2.3,112
2010-02-02 08:55:02,14.1,-3.1,17.2,32.0,2.3,112
2010-02-02 09:00:02,14.8,-5.3,20.1,32.0,2.3,111
2010-02-02 09:05:02,17.3,-3.7,20.9,32.1,2.0,111
2010-02-02 09:10:02,15.8,-1.0,16.8,32.1,2.1,112
2010-02-02 09:15:02,14.7,0.1,14.6,32.0,2.3,112
2010-02-02 09:20:02,14.4,0.2,14.2,32.1,2.3,111
2010-02-02 09:25:02,14.4,-0.1,14.4,32.1,2.3,112
2010-02-02 09:30:02,14.4,0.1,14.3,32.2,2.3,111
2010-02-02 09:35:02,14.4,-0.3,14.7,32.3,2.3,112
2010-02-02 09:40:02,14.4,0.2,14.2,32.2,2.3,112
2010-02-02 09:45:02,14.5,0.2,14.3,32.2,2.3,111
2010-02-02 09:50:02,14.5,0.4,14.1,32.2,2.3,111
2010-02-02 09:55:02,14.6,0.5,14.1,32.3,2.3,111
2010-02-02 10:00:02,14.6,0.4,14.2,32.4,2.3,112
2010-02-02 10:05:02,14.7,0.2,14.5,32.4,2.3,111
2010-02-02 10:10:02,14.7,-0.1,14.8,32.4,2.3,112
2010-02-02 10:15:02,14.8,0.1,14.7,32.4,2.3,111
2010-02-02 10:20:02,15.0,-0.1,15.1,32.5,2.3,112
2010-02-02 10:25:02,15.2,0.2,15.0,32.5,2.0,111
2010-02-02 10:30:02,15.0,0.3,14.7,32.4,1.8,111
2010-02-02 10:35:02,15.2,0.3,15.0,32.4,1.9,112
2010-02-02 10:40:02,15.2,0.2,15.0,32.4,1.8,111
2010-02-02 10:45:02,15.2,0.0,15.1,32.4,1.8,112
2010-02-02 10:50:02,15.2,-0.6,15.8,32.5,1.8,111
2010-02-02 10:55:02,15.3,-0.4,15.6,32.5,1.9,112
2010-02-02 11:00:02,15.2,-0.9,16.2,32.5,1.9,112
2010-02-02 11:05:02,15.2,-2.2,17.3,32.4,1.8,111
2010-02-02 11:10:02,15.3,-2.2,17.4,32.4,1.8,112
2010-02-02 11:15:02,15.4,-3.5,18.9,32.5,1.9,112
2010-02-02 11:20:02,18.1,-3.7,21.8,32.5,2.4,111
2010-02-02 11:25:02,17.0,-0.6,17.6,32.4,2.3,112
2010-02-02 11:30:02,15.8,-0.3,16.1,32.4,2.1,112
2010-02-02 11:35:02,15.5,-0.4,15.9,32.4,1.8,112
2010-02-02 11:40:02,15.4,-0.6,16.0,32.5,1.8,112
2010-02-02 11:45:02,15.4,-0.6,16.0,32.4,3.0,111
2010-02-02 11:50:02,15.2,-0.6,15.9,32.4,2.5,112
2010-02-02 11:55:02,15.1,-0.1,15.3,32.4,1.8,111
2010-02-02 12:00:02,15.2,-0.1,15.2,32.5,1.8,112
2010-02-02 12:05:02,15.3,-0.3,15.6,32.5,1.8,111
2010-02-02 12:10:02,15.5,-0.8,16.3,32.5,1.8,111
2010-02-02 12:15:02,15.6,-0.5,16.1,32.5,1.9,112
2010-02-02 12:20:02,15.7,0.0,15.7,32.5,2.0,111
2010-02-02 12:25:02,15.7,-0.2,15.9,32.5,2.1,112
2010-02-02 12:30:02,15.7,-0.2,15.9,32.5,2.1,111
2010-02-02 12:35:02,15.7,-0.6,16.2,32.5,2.0,112
2010-02-02 12:40:02,15.7,-1.0,16.6,32.5,2.1,112
2010-02-02 12:45:02,15.8,-2.9,18.6,32.5,2.1,112
2010-02-02 12:50:02,17.1,-3.6,20.7,32.5,2.4,111
2010-02-02 12:55:02,19.5,-3.3,22.8,32.5,2.4,112
2010-02-02 13:00:02,20.1,-0.9,21.1,32.4,2.5,112
2010-02-02 13:05:02,20.1,-1.0,21.1,32.4,2.7,112
2010-02-02 13:10:02,19.9,-1.2,21.1,32.4,2.5,111
2010-02-02 13:15:02,19.5,-1.1,20.6,32.4,2.4,112
2010-02-02 13:20:02,20.0,-1.5,21.5,32.4,4.2,111
2010-02-02 13:25:02,20.0,-1.6,21.5,32.4,4.3,112
2010-02-02 13:30:02,19.2,-0.9,20.1,32.4,5.7,111
2010-02-02 13:35:02,17.8,-1.8,19.6,32.4,7.5,112
2010-02-02 13:40:02,16.4,1.2,15.2,32.2,12.2,111
2010-02-02 13:45:02,15.4,1.6,13.8,32.3,11.3,111
2010-02-02 13:50:02,15.1,2.9,12.2,32.3,16.4,111
2010-02-02 13:55:02,14.9,2.1,12.8,32.3,18.4,111
2010-02-02 14:00:02,14.8,3.3,11.4,32.3,14.4,111
2010-02-02 14:05:02,14.7,5.0,9.7,32.3,8.0,112
2010-02-02 14:10:02,14.6,5.2,9.5,32.3,4.2,111
2010-02-02 14:15:02,14.5,5.1,9.4,32.3,3.6,112
2010-02-02 14:20:02,14.4,4.6,9.8,32.4,3.5,112
2010-02-02 14:25:02,14.5,0.5,14.0,32.3,3.1,111
2010-02-02 14:30:02,14.5,-0.3,14.9,32.4,4.0,112
2010-02-02 14:35:02,14.6,0.2,14.4,32.4,2.9,112
2010-02-02 14:40:02,14.6,0.8,13.9,32.4,2.3,111
2010-02-02 14:45:02,14.7,0.4,14.4,32.4,2.7,111
2010-02-02 14:50:02,14.8,0.8,14.0,32.4,2.0,112
2010-02-02 14:55:02,15.0,0.7,14.2,32.3,1.9,111
2010-02-02 15:00:02,15.0,0.7,14.3,32.3,2.1,111
2010-02-02 15:05:02,15.1,0.8,14.3,32.4,2.3,111
2010-02-02 15:10:02,15.1,0.5,14.6,32.3,2.0,112
2010-02-02 15:15:02,15.1,0.5,14.6,32.3,2.3,111
2010-02-02 15:20:02,15.1,0.5,14.6,32.2,2.6,111
2010-02-02 15:25:02,15.0,0.5,14.6,32.2,2.5,112
2010-02-02 15:30:02,15.0,0.6,14.5,32.2,2.5,111
2010-02-02 15:35:02,15.0,0.1,15.0,32.1,6.9,112
2010-02-02 15:40:02,15.0,1.8,13.2,31.9,25.2,111
2010-02-02 15:45:02,14.9,3.0,11.9,31.9,19.6,111
2010-02-02 15:50:02,15.0,3.5,11.5,31.8,3.1,112
2010-02-02 15:55:02,15.0,4.0,10.9,32.0,6.3,111
2010-02-02 16:00:02,15.0,2.7,12.3,31.9,22.8,111
2010-02-02 16:05:02,14.8,2.8,12.1,31.5,14.3,112
2010-02-02 16:10:02,15.1,3.1,12.0,31.2,25.9,111
2010-02-02 16:15:02,15.0,3.9,11.1,31.0,22.1,112
2010-02-02 16:20:02,15.1,3.9,11.2,30.9,10.4,111
2010-02-02 16:25:02,15.0,4.2,10.8,30.5,6.9,112
2010-02-02 16:30:02,14.9,5.0,9.9,30.7,4.6,112
2010-02-02 16:35:02,14.9,4.8,10.1,31.0,2.7,111
2010-02-02 16:40:02,14.9,4.2,10.7,31.2,2.3,112
2010-02-02 16:45:02,14.9,0.9,14.0,31.0,2.2,111
2010-02-02 16:50:02,14.9,-0.9,15.8,30.9,2.2,112
2010-02-02 16:55:02,16.3,-8.5,24.7,30.6,2.1,112
2010-02-02 17:00:02,18.5,-3.7,22.2,29.2,2.4,111
2010-02-02 17:05:02,18.9,-2.0,20.9,27.3,2.3,112
2010-02-02 17:10:02,16.5,-0.6,17.1,24.7,2.4,112
2010-02-02 17:15:02,15.6,-0.6,16.2,21.2,2.1,111
2010-02-02 17:20:02,15.3,-2.4,17.7,17.1,1.9,112
2010-02-02 17:25:02,15.3,-2.1,17.3,11.6,1.8,112
2010-02-02 17:30:02,15.2,-1.0,16.2,6.7,1.8,111
2010-02-02 17:35:02,15.2,-2.5,17.7,4.1,2.1,112
2010-02-02 17:40:02,16.9,-3.7,20.6,2.1,2.2,112
2010-02-02 17:45:02,16.6,-1.6,18.1,0.9,2.1,112
2010-02-02 17:50:02,15.4,-2.1,17.6,0.5,1.8,111
2010-02-02 17:55:02,15.2,-3.7,18.9,0.3,1.8,112
2010-02-02 18:00:02,15.2,-3.2,18.4,0.2,1.8,112
2010-02-02 18:05:02,15.1,-2.3,17.3,0.1,1.9,111
2010-02-02 18:10:02,15.0,-2.2,17.2,0.1,5.7,112
2010-02-02 18:15:02,15.0,-2.2,17.2,0.1,6.1,112
2010-02-02 18:20:02,14.8,-2.2,17.0,0.1,4.7,111
2010-02-02 18:25:02,14.7,-1.9,16.6,0.1,8.6,111
2010-02-02 18:30:02,14.6,-2.5,17.1,0.1,3.4,112
2010-02-02 18:35:02,14.4,-3.0,17.4,0.1,3.1,111
2010-02-02 18:40:02,14.3,-3.7,18.1,0.1,2.9,112
2010-02-02 18:45:02,14.2,-2.8,17.0,0.1,2.6,112
2010-02-02 18:50:02,14.1,-3.1,17.3,0.1,2.3,112
2010-02-02 18:55:02,14.1,-3.2,17.3,0.1,2.3,112
2010-02-02 19:00:02,14.1,-3.4,17.5,0.1,2.3,111
2010-02-02 19:05:02,14.1,-2.9,17.0,0.1,2.3,112
2010-02-02 19:10:02,14.6,-6.2,20.8,0.1,2.3,111
2010-02-02 19:15:02,17.2,-14.2,31.5,0.1,2.1,112
2010-02-02 19:20:02,17.7,-19.1,36.8,0.0,1.9,111
2010-02-02 19:25:02,17.8,-19.9,37.7,0.0,2.1,112
2010-02-02 19:30:02,17.7,-21.0,38.7,0.0,2.3,112
2010-02-02 19:35:02,17.7,-21.6,39.3,0.0,2.3,112
2010-02-02 19:40:03,17.7,-21.3,39.0,0.0,2.3,111
2010-02-02 19:45:03,17.7,-20.7,38.4,0.0,2.3,112
2010-02-02 19:50:03,17.6,-19.7,37.3,0.0,2.3,111
2010-02-02 19:55:03,17.2,-19.0,36.2,0.0,2.3,112
2010-02-02 20:00:03,17.4,-18.5,36.0,0.0,2.4,111
2010-02-02 20:05:03,17.1,-18.5,35.6,0.0,2.5,112
2010-02-02 20:10:03,17.4,-18.2,35.7,0.0,2.4,111
2010-02-02 20:15:03,17.1,-17.8,34.9,0.0,2.3,112
2010-02-02 20:20:03,17.5,-17.4,34.9,0.0,2.3,112
2010-02-02 20:25:03,17.8,-17.2,35.0,0.0,2.3,111
2010-02-02 20:30:03,17.6,-16.3,33.9,0.0,2.3,111
2010-02-02 20:35:03,17.6,-12.0,29.5,0.0,2.3,112
2010-02-02 20:40:03,17.5,-11.4,28.9,0.0,2.3,112
2010-02-02 20:45:03,17.9,-12.2,30.0,0.0,2.3,112
2010-02-02 20:50:03,18.0,-10.9,28.9,0.0,2.3,111
2010-02-02 20:55:03,18.1,-11.9,30.0,0.0,2.3,112
2010-02-02 21:00:03,18.1,-10.6,28.7,0.0,2.3,112
2010-02-02 21:05:04,18.1,-9.1,27.2,0.0,2.3,112
2010-02-02 21:10:04,18.1,-14.8,32.8,0.0,2.3,111
2010-02-02 21:15:04,18.0,-14.2,32.2,0.0,2.3,111
2010-02-02 21:20:04,18.0,-12.3,30.3,0.1,2.3,112
2010-02-02 21:25:04,18.0,-12.3,30.4,0.1,2.4,112
2010-02-02 21:30:04,18.1,-10.6,28.7,0.1,2.4,112
2010-02-02 21:35:04,18.1,-13.0,31.1,0.1,2.6,111
2010-02-02 21:40:04,18.0,-13.5,31.5,0.0,2.6,112
2010-02-02 21:45:04,18.0,-13.3,31.3,0.0,2.6,111
2010-02-02 21:50:04,18.0,-12.8,30.8,0.0,2.6,111
2010-02-02 21:55:04,18.1,-12.0,30.0,0.1,2.5,111
2010-02-02 22:00:04,18.1,-11.0,29.2,0.1,2.5,112
2010-02-02 22:05:04,18.2,-10.4,28.6,0.1,2.5,112
2010-02-02 22:10:04,18.2,-10.8,29.0,0.0,2.6,112
2010-02-02 22:15:04,18.2,-12.7,31.0,0.0,2.6,111
2010-02-02 22:20:04,18.2,-13.0,31.1,0.0,2.6,111
2010-02-02 22:25:04,18.1,-13.4,31.5,0.0,2.6,112
2010-02-02 22:30:04,18.2,-14.2,32.3,0.0,2.4,112
2010-02-02 22:35:04,18.2,-14.7,32.8,0.0,2.4,111
2010-02-02 22:40:04,18.2,-14.9,33.1,0.0,2.3,111
2010-02-02 22:45:04,18.2,-13.2,31.4,0.0,2.3,112
2010-02-02 22:50:04,18.2,-9.2,27.4,0.1,2.3,112
2010-02-02 22:55:04,18.2,-7.9,26.1,0.1,2.3,111
2010-02-02 23:00:04,18.2,-8.2,26.4,0.1,2.3,111
2010-02-02 23:05:04,18.3,-7.7,25.9,0.1,2.3,112
2010-02-02 23:10:04,18.3,-6.8,25.1,0.1,2.4,112
2010-02-02 23:15:04,18.3,-6.1,24.4,0.1,2.3,112
2010-02-02 23:20:04,18.4,-5.5,23.9,0.1,2.4,111
2010-02-02 23:25:04,18.5,-5.4,23.8,0.1,2.5,112
2010-02-02 23:30:04,18.5,-5.7,24.2,0.1,2.4,111
2010-02-02 23:35:04,18.4,-5.7,24.1,0.1,2.4,111
2010-02-02 23:40:04,18.5,-5.7,24.1,0.1,2.4,111
2010-02-02 23:45:04,18.5,-5.5,24.0,0.1,2.5,111
2010-02-02 23:50:04,18.5,-5.6,24.1,0.1,2.5,111
2010-02-02 23:55:04,18.5,-5.6,24.1,0.1,2.5,112
